DW7918 Weather Reports


Display with metric or nautical units.
time (UTC)temp
F
wind
direction
speed
MPH
gust
MPH
rain 1hr
in
rain 24hr
in
rain mn
in
humidity
%
barometer
mb
20260504222603 67 304 7.0 15.0 0.12 0.12 0.12 57 999.7
20260504222424 67 303 8.0 15.0 0.12 0.12 0.12 55 999.6
20260504222203 67 303 10.0 21.0 0.12 0.12 0.12 57 999.7
20260504222024 67 305 10.0 26.0 0.12 0.12 0.12 56 999.6
20260504221824 67 307 11.0 26.0 0.12 0.12 0.12 57 999.5
20260504221603 68 309 11.0 26.0 0.12 0.12 0.12 58 999.6
20260504221403 69 310 12.0 26.0 0.09 0.09 0.09 54 1000.1
20260504221203 72 311 12.0 26.0 0.04 0.04 0.04 48 1000.2
20260504221003 74 310 11.0 22.0 0.00 0.00 0.00 38 999.6
20260504220803 74 310 11.0 22.0 0.00 0.00 0.00 37 999.2
20260504220603 74 311 11.0 22.0 0.00 0.00 0.00 36 999.2
20260504220424 75 313 10.0 22.0 0.00 0.00 0.00 35 999.1
20260504220224 76 320 9.0 22.0 0.00 0.00 0.00 34 999.1
20260504220003 78 325 7.0 14.0 0.00 0.00 0.00 32 999.1
20260504215803 78 326 7.0 14.0 0.00 0.00 0.00 30 999.0
20260504215624 78 329 7.0 13.0 0.00 0.00 0.00 31 998.9
20260504215403 78 329 7.0 16.0 0.00 0.00 0.00 31 998.9
20260504215203 78 324 8.0 16.0 0.00 0.00 0.00 31 998.7
20260504215003 78 319 8.0 16.0 0.00 0.00 0.00 30 998.9
20260504214803 78 319 8.0 16.0 0.00 0.00 0.00 32 998.8
20260504214603 78 315 8.0 16.0 0.00 0.00 0.00 31 998.8
20260504214403 78 310 8.0 15.0 0.00 0.00 0.00 30 998.8
20260504214203 78 309 8.0 15.0 0.00 0.00 0.00 31 998.9
20260504214003 78 309 8.0 13.0 0.00 0.00 0.00 31 998.9
20260504213803 78 308 8.0 15.0 0.00 0.00 0.00 30 999.1
20260504213603 78 306 9.0 20.0 0.00 0.00 0.00 34 999.1
20260504213403 78 307 8.0 20.0 0.00 0.00 0.00 34 999.1
20260504213203 78 307 8.0 20.0 0.00 0.00 0.00 31 999.1
20260504213024 78 309 8.0 20.0 0.00 0.00 0.00 32 999.2
20260504212803 78 309 7.0 20.0 0.00 0.00 0.00 32 999.1
20260504212624 77 313 6.0 20.0 0.00 0.00 0.00 32 999.1
20260504212403 77 315 6.0 12.0 0.00 0.00 0.00 35 999.2
20260504212203 76 312 7.0 12.0 0.00 0.00 0.00 34 999.3
20260504212003 76 311 7.0 12.0 0.00 0.00 0.00 35 999.3
20260504211803 76 313 7.0 13.0 0.00 0.00 0.00 34 999.4
20260504211624 76 309 8.0 15.0 0.00 0.00 0.00 33 999.4
20260504211403 75 308 7.0 15.0 0.00 0.00 0.00 35 999.5
20260504211203 75 308 7.0 15.0 0.00 0.00 0.00 36 999.5
20260504211003 75 308 7.0 15.0 0.00 0.00 0.00 35 999.5
20260504210803 75 305 6.0 15.0 0.00 0.00 0.00 36 999.5
20260504210603 75 306 6.0 12.0 0.00 0.00 0.00 39 999.6
20260504210424 75 304 7.0 11.0 0.00 0.00 0.00 39 999.7
20260504210203 75 303 8.0 15.0 0.00 0.00 0.00 38 999.7
20260504210003 75 303 9.0 16.0 0.00 0.00 0.00 38 999.8
20260504205803 75 305 10.0 18.0 0.00 0.00 0.00 38 999.7
20260504205603 76 304 10.0 18.0 0.00 0.00 0.00 36 999.8
20260504205403 76 306 11.0 18.0 0.00 0.00 0.00 35 999.7
20260504205203 77 307 11.0 18.0 0.00 0.00 0.00 35 999.8
20260504205024 76 306 11.0 18.0 0.00 0.00 0.00 35 1000.0
20260504204803 76 308 10.0 17.0 0.00 0.00 0.00 34 999.9
20260504204603 76 310 10.0 17.0 0.00 0.00 0.00 34 999.9
20260504204424 77 310 9.0 17.0 0.00 0.00 0.00 33 999.9
20260504204224 77 308 9.0 18.0 0.00 0.00 0.00 33 999.9
20260504204003 77 310 10.0 18.0 0.00 0.00 0.00 35 999.9
20260504203803 77 305 10.0 18.0 0.00 0.00 0.00 37 999.9
20260504203624 76 305 10.0 18.0 0.00 0.00 0.00 37 999.9
20260504203403 76 304 12.0 22.0 0.00 0.00 0.00 38 1000.0
20260504203203 76 305 12.0 22.0 0.00 0.00 0.00 36 1000.1
20260504203003 76 304 12.0 22.0 0.00 0.00 0.00 38 1000.1
20260504202803 76 304 11.0 22.0 0.00 0.00 0.00 35 1000.1
20260504202603 76 306 11.0 22.0 0.00 0.00 0.00 36 1000.1
20260504202403 76 306 11.0 20.0 0.00 0.00 0.00 36 1000.1
20260504202203 76 306 10.0 20.0 0.00 0.00 0.00 38 1000.1
20260504202003 75 307 9.0 20.0 0.00 0.00 0.00 38 1000.1
20260504201803 75 308 9.0 20.0 0.00 0.00 0.00 38 1000.2
20260504201603 74 307 9.0 16.0 0.00 0.00 0.00 40 1000.2
20260504201403 74 307 9.0 15.0 0.00 0.00 0.00 41 1000.3
20260504201203 75 306 9.0 15.0 0.00 0.00 0.00 37 1000.3
20260504201003 75 304 10.0 15.0 0.00 0.00 0.00 37 1000.3
20260504200803 76 305 10.0 16.0 0.00 0.00 0.00 36 1000.4
20260504200624 77 306 10.0 16.0 0.00 0.00 0.00 37 1000.4
20260504200403 77 304 10.0 20.0 0.00 0.00 0.00 38 1000.4
20260504200203 76 305 11.0 20.0 0.00 0.00 0.00 36 1000.4
20260504200003 76 309 11.0 20.0 0.00 0.00 0.00 41 1000.5
20260504195803 76 309 12.0 20.0 0.00 0.00 0.00 38 1000.5
20260504195624 76 307 12.0 20.0 0.00 0.00 0.00 38 1000.4
20260504195403 76 306 12.0 22.0 0.00 0.00 0.00 39 1000.4
20260504195203 75 304 12.0 22.0 0.00 0.00 0.00 38 1000.4
20260504195003 76 300 12.0 22.0 0.00 0.00 0.00 38 1000.5
20260504194824 76 298 12.0 22.0 0.00 0.00 0.00 37 1000.6
20260504194603 76 298 11.0 22.0 0.00 0.00 0.00 35 1000.6
20260504194403 76 299 11.0 18.0 0.00 0.00 0.00 36 1000.6
20260504194203 76 302 11.0 20.0 0.00 0.00 0.00 35 1000.7
20260504194003 75 304 11.0 20.0 0.00 0.00 0.00 37 1000.8
20260504193803 75 307 12.0 20.0 0.00 0.00 0.00 36 1000.8
20260504193603 75 308 12.0 20.0 0.00 0.00 0.00 36 1000.8
20260504193424 76 306 12.0 20.0 0.00 0.00 0.00 36 1000.8
20260504193203 76 305 11.0 19.0 0.00 0.00 0.00 37 1000.8
20260504193024 75 304 11.0 19.0 0.00 0.00 0.00 36 1000.9
20260504192824 76 303 11.0 19.0 0.00 0.00 0.00 36 1000.9
20260504192603 76 301 11.0 19.0 0.00 0.00 0.00 34 1000.9
20260504192403 76 303 10.0 17.0 0.00 0.00 0.00 39 1000.9
20260504192224 76 304 11.0 17.0 0.00 0.00 0.00 36 1000.9
20260504192003 76 304 10.0 17.0 0.00 0.00 0.00 35 1001.0
20260504191803 76 304 9.0 15.0 0.00 0.00 0.00 39 1001.0
20260504191603 75 305 9.0 15.0 0.00 0.00 0.00 40 1001.0
20260504191403 75 304 9.0 15.0 0.00 0.00 0.00 40 1001.0
20260504191224 75 304 9.0 15.0 0.00 0.00 0.00 38 1001.1
20260504191003 75 305 9.0 17.0 0.00 0.00 0.00 38 1001.1
20260504190803 75 305 10.0 18.0 0.00 0.00 0.00 35 1001.2
20260504190603 75 304 11.0 18.0 0.00 0.00 0.00 36 1001.2
20260504190403 74 305 11.0 20.0 0.00 0.00 0.00 38 1001.2
20260504190203 74 305 11.0 20.0 0.00 0.00 0.00 34 1001.3
20260504190003 74 302 11.0 20.0 0.00 0.00 0.00 36 1001.2
20260504185803 74 302 11.0 20.0 0.00 0.00 0.00 35 1001.3
20260504185603 74 303 10.0 20.0 0.00 0.00 0.00 35 1001.3
20260504185403 75 303 9.0 18.0 0.00 0.00 0.00 35 1001.2
20260504185203 76 302 9.0 18.0 0.00 0.00 0.00 35 1001.2
20260504185003 76 303 9.0 16.0 0.00 0.00 0.00 34 1001.2
20260504184803 76 302 9.0 16.0 0.00 0.00 0.00 35 1001.3
20260504184603 75 303 9.0 15.0 0.00 0.00 0.00 37 1001.3
20260504184424 75 304 9.0 19.0 0.00 0.00 0.00 37 1001.3
20260504184224 74 304 10.0 19.0 0.00 0.00 0.00 33 1001.3
20260504184024 75 305 9.0 19.0 0.00 0.00 0.00 34 1001.3
20260504183803 74 306 10.0 19.0 0.00 0.00 0.00 36 1001.3
20260504183603 74 307 10.0 19.0 0.00 0.00 0.00 31 1001.3
20260504183403 74 305 10.0 17.0 0.00 0.00 0.00 32 1001.3
20260504183203 75 304 10.0 18.0 0.00 0.00 0.00 33 1001.3
20260504183003 74 306 10.0 19.0 0.00 0.00 0.00 33 1001.4
20260504182803 74 305 9.0 19.0 0.00 0.00 0.00 32 1001.4
20260504182603 74 303 10.0 19.0 0.00 0.00 0.00 32 1001.4
20260504182424 74 303 10.0 19.0 0.00 0.00 0.00 31 1001.5
20260504182203 74 303 10.0 19.0 0.00 0.00 0.00 32 1001.5
20260504182024 74 303 10.0 17.0 0.00 0.00 0.00 32 1001.5
20260504181803 74 302 11.0 17.0 0.00 0.00 0.00 31 1001.5
20260504181603 74 303 10.0 17.0 0.00 0.00 0.00 31 1001.5
20260504181424 74 301 10.0 17.0 0.00 0.00 0.00 32 1001.5
20260504181203 75 300 9.0 17.0 0.00 0.00 0.00 30 1001.6
20260504181003 75 299 9.0 17.0 0.00 0.00 0.00 31 1001.5
20260504180803 75 298 9.0 17.0 0.00 0.00 0.00 29 1001.4
20260504180603 75 299 9.0 16.0 0.00 0.00 0.00 30 1001.5
20260504180403 74 300 10.0 16.0 0.00 0.00 0.00 29 1001.4
20260504180203 74 299 10.0 18.0 0.00 0.00 0.00 33 1001.5
20260504180003 74 301 11.0 18.0 0.00 0.00 0.00 31 1001.6
20260504175803 74 303 10.0 18.0 0.00 0.00 0.00 28 1001.5
20260504175603 74 302 10.0 18.0 0.00 0.00 0.00 30 1001.6
20260504175403 74 303 10.0 18.0 0.00 0.00 0.00 30 1001.5
20260504175203 74 305 10.0 17.0 0.00 0.00 0.00 31 1001.6
20260504175003 74 304 10.0 17.0 0.00 0.00 0.00 28 1001.6
20260504174803 74 303 10.0 18.0 0.00 0.00 0.00 32 1001.6
20260504174603 74 304 11.0 18.0 0.00 0.00 0.00 29 1001.7
20260504174403 74 304 11.0 19.0 0.00 0.00 0.00 32 1001.8
20260504174203 73 305 10.0 19.0 0.00 0.00 0.00 28 1001.9
20260504174024 73 305 10.0 19.0 0.00 0.00 0.00 30 1001.9
20260504173803 73 304 10.0 19.0 0.00 0.00 0.00 29 1001.9
20260504173603 73 305 10.0 19.0 0.00 0.00 0.00 30 1001.9
20260504173403 73 306 10.0 19.0 0.00 0.00 0.00 31 1002.0
20260504173203 73 306 10.0 19.0 0.00 0.00 0.00 30 1002.0
20260504173003 73 305 10.0 19.0 0.00 0.00 0.00 29 1002.1
20260504172803 73 304 10.0 19.0 0.00 0.00 0.00 31 1002.2
20260504172603 73 302 10.0 17.0 0.00 0.00 0.00 28 1002.2
20260504172403 73 303 10.0 15.0 0.00 0.00 0.00 31 1002.1
20260504172203 73 303 10.0 15.0 0.00 0.00 0.00 29 1002.2
20260504172003 73 304 10.0 15.0 0.00 0.00 0.00 30 1002.1
20260504171803 73 305 10.0 15.0 0.00 0.00 0.00 31 1002.2
20260504171603 73 306 10.0 15.0 0.00 0.00 0.00 34 1002.3
20260504171403 73 303 9.0 15.0 0.00 0.00 0.00 32 1002.3
20260504171203 73 303 8.0 15.0 0.00 0.00 0.00 29 1002.3
20260504171003 73 304 8.0 14.0 0.00 0.00 0.00 33 1002.4
20260504170804 73 305 8.0 14.0 0.00 0.00 0.00 32 1002.4
20260504170603 72 305 8.0 14.0 0.00 0.00 0.00 35 1002.4
20260504170403 72 305 9.0 14.0 0.00 0.00 0.00 34 1002.5
20260504170203 72 306 9.0 14.0 0.00 0.00 0.00 32 1002.5
20260504160403 69 309 7.0 12.0 0.00 0.00 0.00 38 1003.4
20260504160203 69 307 7.0 12.0 0.00 0.00 0.00 39 1003.4
20260504151003 65 299 7.0 10.0 0.00 0.00 0.00 49 1004.0
20260504150824 64 299 7.0 10.0 0.00 0.00 0.00 47 1004.1
20260504150624 64 301 7.0 10.0 0.00 0.00 0.00 47 1004.1
20260504150424 64 301 7.0 10.0 0.00 0.00 0.00 48 1004.1
20260504150203 64 300 6.0 12.0 0.00 0.00 0.00 47 1004.1
20260504141203 61 305 6.0 10.0 0.00 0.00 0.00 52 1004.3
20260504141003 60 305 6.0 10.0 0.00 0.00 0.00 51 1004.3
20260504140803 60 306 6.0 10.0 0.00 0.00 0.00 52 1004.3
20260504140603 60 306 6.0 10.0 0.00 0.00 0.00 53 1004.3
20260504140403 60 307 6.0 10.0 0.00 0.00 0.00 53 1004.3
20260504140203 60 307 6.0 10.0 0.00 0.00 0.00 54 1004.3
20260504130803 55 298 5.0 8.0 0.00 0.00 0.00 57 1004.7
20260504130603 55 298 5.0 8.0 0.00 0.00 0.00 57 1004.7
20260504130403 55 299 5.0 9.0 0.00 0.00 0.00 57 1004.8
20260504130224 55 299 5.0 9.0 0.00 0.00 0.00 58 1004.8
20260504120306 51 302 6.0 11.0 0.00 0.00 0.00 61 1005.1
20260504110624 48 295 2.0 6.0 0.00 0.00 0.00 63 1004.7
20260504110403 48 294 2.0 6.0 0.00 0.00 0.00 63 1004.6
20260504110203 48 294 2.0 6.0 0.00 0.00 0.00 63 1004.6
20260504100603 48 298 2.0 5.0 0.00 0.00 0.00 63 1004.5
20260504100403 48 296 2.0 5.0 0.00 0.00 0.00 63 1004.5
20260504100203 48 296 2.0 5.0 0.00 0.00 0.00 63 1004.5
20260504081824 46 0 0.0 0.0 0.00 0.00 0.00 63 1005.0
20260504081603 46 0 0.0 0.0 0.00 0.00 0.00 63 1005.1
20260504081424 46 0 0.0 0.0 0.00 0.00 0.00 64 1005.1
20260504081203 46 0 0.0 0.0 0.00 0.00 0.00 64 1005.1
20260504081003 46 0 0.0 0.0 0.00 0.00 0.00 64 1005.1
20260504080803 46 0 0.0 0.0 0.00 0.00 0.00 64 1005.1
20260504080624 46 0 0.0 0.0 0.00 0.00 0.00 64 1005.1
20260504080403 46 0 0.0 0.0 0.00 0.00 0.00 64 1005.1
20260504080224 46 0 0.0 0.0 0.00 0.00 0.00 64 1005.1
20260504070403 46 0 0.0 0.0 0.00 0.00 0.00 65 1005.8
20260504070203 46 0 0.0 0.0 0.00 0.00 0.00 64 1005.8
20260504060203 48 309 1.0 2.0 0.00 0.00 0.00 63 1006.7
20260504050603 49 298 2.0 5.0 0.00 0.00 0.00 62 1007.4
20260504050403 49 297 2.0 6.0 0.00 0.00 0.00 62 1007.4
20260504050203 49 296 2.0 6.0 0.00 0.00 0.00 62 1007.4
20260504050003 49 298 2.0 6.0 0.00 0.00 0.00 62 1007.4
20260504045803 49 297 2.0 6.0 0.00 0.00 0.00 61 1007.4
20260504045603 49 297 2.0 6.0 0.00 0.00 0.00 62 1007.4
20260504045403 49 296 2.0 5.0 0.00 0.00 0.00 62 1007.4
20260504045224 49 296 2.0 5.0 0.00 0.00 0.00 62 1007.4
20260504045003 49 295 2.0 5.0 0.00 0.00 0.00 62 1007.4
20260504044824 49 295 2.0 5.0 0.00 0.00 0.00 61 1007.4
20260504044603 49 291 2.0 5.0 0.00 0.00 0.00 61 1007.4
20260504044424 49 290 2.0 5.0 0.00 0.00 0.00 61 1007.4
20260504044203 49 288 2.0 4.0 0.00 0.00 0.00 61 1007.5
20260504044003 49 288 2.0 4.0 0.00 0.00 0.00 61 1007.5
20260504043803 49 290 2.0 4.0 0.00 0.00 0.00 61 1007.5
20260504043603 50 292 2.0 4.0 0.00 0.00 0.00 61 1007.5
20260504043403 49 293 2.0 4.0 0.00 0.00 0.00 61 1007.6
20260504043203 49 294 2.0 4.0 0.00 0.00 0.00 61 1007.5
20260504043003 50 294 3.0 4.0 0.00 0.00 0.00 61 1007.5
20260504042803 49 292 2.0 4.0 0.00 0.00 0.00 61 1007.6
20260504042603 50 292 3.0 6.0 0.00 0.00 0.00 61 1007.6
20260504042403 50 292 3.0 6.0 0.00 0.00 0.00 61 1007.6
20260504042203 50 293 3.0 6.0 0.00 0.00 0.00 61 1007.7
20260504042003 50 293 3.0 6.0 0.00 0.00 0.00 61 1007.7
20260504041803 50 293 3.0 6.0 0.00 0.00 0.00 61 1007.7
20260504041624 50 292 3.0 6.0 0.00 0.00 0.00 61 1007.8
20260504041404 50 292 2.0 5.0 0.00 0.00 0.00 61 1007.8
20260504041203 50 292 3.0 5.0 0.00 0.00 0.00 61 1007.8
20260504041003 50 292 2.0 7.0 0.00 0.00 0.00 60 1007.8
20260504040803 50 293 3.0 7.0 0.00 0.00 0.00 61 1007.7
20260504040603 50 293 3.0 7.0 0.00 0.00 0.00 60 1007.8
20260504040424 50 293 3.0 7.0 0.00 0.00 0.00 60 1007.8
20260504040203 50 295 3.0 7.0 0.00 0.00 0.00 60 1007.7
20260504040004 50 294 3.0 6.0 0.00 0.00 0.00 60 1007.7
20260504035803 50 295 3.0 6.0 0.00 0.00 0.00 60 1007.7
20260504035603 50 295 3.0 6.0 0.00 0.00 0.00 60 1007.8
20260504035403 50 295 3.0 5.0 0.00 0.00 0.00 60 1007.8
20260504035203 50 294 3.0 5.0 0.00 0.00 0.00 60 1007.8
20260504035003 50 295 3.0 6.0 0.00 0.00 0.00 60 1007.8
20260504034803 50 295 3.0 6.0 0.00 0.00 0.00 60 1007.8
20260504034603 50 294 3.0 6.0 0.00 0.00 0.00 60 1007.8
20260504034403 50 295 3.0 6.0 0.00 0.00 0.00 60 1007.8
20260504034224 50 295 3.0 6.0 0.00 0.00 0.00 60 1007.8
20260504034024 50 296 3.0 6.0 0.00 0.00 0.00 60 1007.9
20260504033803 50 295 3.0 8.0 0.00 0.00 0.00 60 1007.9
20260504033603 50 296 3.0 8.0 0.00 0.00 0.00 60 1007.9
20260504033403 50 295 3.0 8.0 0.00 0.00 0.00 60 1007.9
20260504033203 50 294 3.0 8.0 0.00 0.00 0.00 60 1007.8
20260504033003 50 294 3.0 8.0 0.00 0.00 0.00 60 1007.8
20260504032824 50 294 3.0 7.0 0.00 0.00 0.00 60 1007.8
20260504032603 50 293 3.0 7.0 0.00 0.00 0.00 60 1007.8
20260504032403 50 295 3.0 7.0 0.00 0.00 0.00 60 1007.8
20260504032203 50 295 3.0 7.0 0.00 0.00 0.00 60 1007.8
20260504032024 50 295 3.0 7.0 0.00 0.00 0.00 60 1007.9
20260504031803 50 295 3.0 7.0 0.00 0.00 0.00 59 1007.9
20260504031603 50 296 3.0 7.0 0.00 0.00 0.00 60 1007.9
20260504031403 50 294 3.0 8.0 0.00 0.00 0.00 60 1008.0
20260504031203 50 293 3.0 8.0 0.00 0.00 0.00 60 1008.0
20260504031024 50 293 4.0 8.0 0.00 0.00 0.00 59 1008.0
20260504030803 50 293 4.0 8.0 0.00 0.00 0.00 59 1008.0
20260504030603 50 291 4.0 8.0 0.00 0.00 0.00 59 1008.0
20260504030403 50 291 4.0 8.0 0.00 0.00 0.00 59 1007.9
20260504030203 50 291 4.0 8.0 0.00 0.00 0.00 59 1008.0
20260504030003 50 290 3.0 8.0 0.00 0.00 0.00 59 1008.0
20260504025803 50 291 3.0 8.0 0.00 0.00 0.00 60 1008.1
20260504025603 50 291 3.0 8.0 0.00 0.00 0.00 60 1008.1
20260504025403 50 293 3.0 8.0 0.00 0.00 0.00 59 1008.1
20260504025203 50 294 3.0 8.0 0.00 0.00 0.00 59 1008.1
20260504025024 50 294 3.0 8.0 0.00 0.00 0.00 59 1008.1
20260504024824 50 293 3.0 8.0 0.00 0.00 0.00 59 1008.1
20260504024603 50 293 3.0 8.0 0.00 0.00 0.00 59 1008.2
20260504024403 50 293 3.0 8.0 0.00 0.00 0.00 59 1008.2
20260504024203 50 293 3.0 8.0 0.00 0.00 0.00 59 1008.1
20260504024024 50 293 3.0 8.0 0.00 0.00 0.00 59 1008.2
20260504023803 50 294 4.0 11.0 0.00 0.00 0.00 59 1008.1
20260504023603 50 295 4.0 11.0 0.00 0.00 0.00 59 1008.1
20260504023424 50 294 4.0 11.0 0.00 0.00 0.00 59 1008.1
20260504023203 50 294 4.0 11.0 0.00 0.00 0.00 59 1008.1
20260504023003 50 294 4.0 11.0 0.00 0.00 0.00 59 1008.1
20260504022803 50 294 4.0 8.0 0.00 0.00 0.00 59 1008.1
20260504022603 50 294 4.0 8.0 0.00 0.00 0.00 59 1008.1
20260504022403 50 294 4.0 7.0 0.00 0.00 0.00 59 1008.1
20260504022224 50 294 4.0 11.0 0.00 0.00 0.00 59 1008.1
20260504022003 50 294 4.0 11.0 0.00 0.00 0.00 58 1008.1
20260504021803 50 292 4.0 11.0 0.00 0.00 0.00 58 1008.1
20260504021603 50 292 4.0 11.0 0.00 0.00 0.00 58 1008.1
20260504021403 50 293 4.0 11.0 0.00 0.00 0.00 58 1008.1
20260504021203 50 293 4.0 8.0 0.00 0.00 0.00 58 1008.0
20260504021003 50 293 4.0 8.0 0.00 0.00 0.00 59 1008.1
20260504020803 50 294 4.0 7.0 0.00 0.00 0.00 58 1008.1
20260504020603 51 295 4.0 8.0 0.00 0.00 0.00 58 1008.0
20260504020403 51 295 4.0 8.0 0.00 0.00 0.00 58 1008.0
20260504020203 51 293 4.0 8.0 0.00 0.00 0.00 58 1008.0
20260504020003 51 294 3.0 8.0 0.00 0.00 0.00 58 1008.0
20260504015824 51 292 3.0 8.0 0.00 0.00 0.00 58 1008.0
20260504015603 51 292 3.0 7.0 0.00 0.00 0.00 58 1008.0
20260504015403 51 292 3.0 7.0 0.00 0.00 0.00 58 1008.1
20260504015203 51 292 3.0 7.0 0.00 0.00 0.00 58 1008.0
20260504015003 51 290 3.0 8.0 0.00 0.00 0.00 58 1008.0
20260504014824 51 291 3.0 8.0 0.00 0.00 0.00 58 1008.1
20260504014624 51 288 4.0 9.0 0.00 0.00 0.00 58 1008.0
20260504014403 51 288 4.0 9.0 0.00 0.00 0.00 58 1008.2
20260504014203 51 289 4.0 9.0 0.00 0.00 0.00 58 1008.1
20260504014024 51 289 4.0 9.0 0.00 0.00 0.00 58 1008.1
20260504013824 51 290 4.0 9.0 0.00 0.00 0.00 58 1008.1
20260504013624 51 293 3.0 9.0 0.00 0.00 0.00 58 1008.1
20260504013403 51 295 3.0 8.0 0.00 0.00 0.00 58 1008.1
20260504013203 51 294 4.0 8.0 0.00 0.00 0.00 58 1008.1
20260504013003 51 294 3.0 8.0 0.00 0.00 0.00 58 1008.2
20260504012803 51 294 3.0 7.0 0.00 0.00 0.00 58 1008.2
20260504012603 51 293 3.0 7.0 0.00 0.00 0.00 57 1008.2
20260504012403 51 293 3.0 7.0 0.00 0.00 0.00 57 1008.2
20260504012203 51 293 3.0 6.0 0.00 0.00 0.00 57 1008.3
20260504012003 51 294 3.0 6.0 0.00 0.00 0.00 57 1008.2
20260504011803 51 293 4.0 7.0 0.00 0.00 0.00 57 1008.3
20260504011624 51 292 4.0 9.0 0.00 0.00 0.00 57 1008.3
20260504011403 51 292 4.0 9.0 0.00 0.00 0.00 57 1008.3
20260504011224 51 292 3.0 9.0 0.00 0.00 0.00 57 1008.3
20260504011024 52 293 3.0 9.0 0.00 0.00 0.00 57 1008.2
20260504010803 52 293 3.0 9.0 0.00 0.00 0.00 56 1008.3
20260504010603 52 295 3.0 8.0 0.00 0.00 0.00 57 1008.3
20260504010403 52 294 3.0 8.0 0.00 0.00 0.00 56 1008.2
20260504010204 52 295 3.0 8.0 0.00 0.00 0.00 57 1008.2
20260504010024 52 295 4.0 8.0 0.00 0.00 0.00 56 1008.3
20260504005803 52 294 3.0 7.0 0.00 0.00 0.00 56 1008.3
20260504005603 52 294 4.0 7.0 0.00 0.00 0.00 56 1008.3
20260504005403 52 295 4.0 7.0 0.00 0.00 0.00 56 1008.3
20260504005203 52 295 4.0 7.0 0.00 0.00 0.00 56 1008.3
20260504005004 52 293 3.0 7.0 0.00 0.00 0.00 55 1008.4
20260504004803 52 293 4.0 7.0 0.00 0.00 0.00 55 1008.3
20260504004603 52 293 4.0 8.0 0.00 0.00 0.00 55 1008.3
20260504004424 52 292 4.0 8.0 0.00 0.00 0.00 55 1008.3
20260504004203 52 292 4.0 8.0 0.00 0.00 0.00 55 1008.3
20260504004003 52 292 4.0 9.0 0.00 0.00 0.00 54 1008.5
20260504003824 52 293 4.0 9.0 0.00 0.00 0.00 55 1008.4
20260504003624 52 293 4.0 9.0 0.00 0.00 0.00 54 1008.4
20260504003403 52 293 5.0 9.0 0.00 0.00 0.00 54 1008.5
20260504003203 52 293 5.0 11.0 0.00 0.00 0.00 54 1008.5
20260504003024 53 293 5.0 11.0 0.00 0.00 0.00 54 1008.5
20260504002803 53 293 6.0 11.0 0.00 0.00 0.00 53 1008.5
20260504002603 53 293 6.0 11.0 0.00 0.00 0.00 53 1008.6
20260504002403 53 293 6.0 11.0 0.00 0.00 0.00 53 1008.5
20260504002224 53 293 6.0 11.0 0.00 0.00 0.00 53 1008.6
20260504002003 53 293 6.0 10.0 0.00 0.00 0.00 53 1008.5
20260504001803 53 294 5.0 10.0 0.00 0.00 0.00 53 1008.6
20260504001603 53 295 5.0 10.0 0.00 0.00 0.00 52 1008.6
20260504001403 53 295 5.0 9.0 0.00 0.00 0.00 52 1008.6
20260504001203 54 295 5.0 9.0 0.00 0.00 0.00 52 1008.6
20260504001024 54 294 5.0 9.0 0.00 0.00 0.00 51 1008.6
20260504000803 54 293 5.0 9.0 0.00 0.00 0.00 52 1008.7
20260504000603 54 292 5.0 8.0 0.00 0.00 0.00 51 1008.7
20260504000403 54 292 4.0 9.0 0.00 0.00 0.00 51 1008.7
20260504000204 54 292 4.0 9.0 0.00 0.00 0.00 51 1008.7
20260504000003 54 293 4.0 9.0 0.00 0.00 0.00 51 1008.7
20260503235803 54 294 4.0 9.0 0.00 0.00 0.00 51 1008.8
20260503235624 54 294 4.0 9.0 0.00 0.00 0.00 51 1008.8
20260503235424 54 295 5.0 12.0 0.00 0.00 0.00 51 1008.8
20260503235203 54 294 5.0 12.0 0.00 0.00 0.00 51 1008.8
20260503235024 54 294 6.0 12.0 0.00 0.00 0.00 51 1008.8
20260503234803 54 294 6.0 12.0 0.00 0.00 0.00 50 1008.8
20260503234624 54 294 6.0 12.0 0.00 0.00 0.00 50 1008.9
20260503234403 54 294 6.0 10.0 0.00 0.00 0.00 50 1008.9
20260503234203 54 294 5.0 10.0 0.00 0.00 0.00 49 1008.9
20260503234003 54 294 5.0 10.0 0.00 0.00 0.00 51 1009.0
20260503233824 55 294 5.0 10.0 0.00 0.00 0.00 49 1009.0
20260503233603 55 295 4.0 8.0 0.00 0.00 0.00 50 1008.9
20260503233403 55 294 5.0 10.0 0.00 0.00 0.00 51 1009.0
20260503233224 54 294 5.0 10.0 0.00 0.00 0.00 51 1008.9
20260503233003 54 294 5.0 10.0 0.00 0.00 0.00 51 1009.0
20260503232803 54 293 5.0 10.0 0.00 0.00 0.00 51 1009.0
20260503232624 54 291 5.0 10.0 0.00 0.00 0.00 51 1009.1
20260503232403 54 292 5.0 8.0 0.00 0.00 0.00 52 1009.1
20260503232203 54 292 5.0 9.0 0.00 0.00 0.00 52 1009.2
20260503232003 54 291 5.0 11.0 0.00 0.00 0.00 51 1009.2
20260503231824 54 292 6.0 11.0 0.00 0.00 0.00 51 1009.3
20260503231624 54 292 5.0 11.0 0.00 0.00 0.00 51 1009.3
20260503231424 55 292 6.0 11.0 0.00 0.00 0.00 51 1009.3
20260503231203 55 293 6.0 11.0 0.00 0.00 0.00 50 1009.3
20260503231003 55 294 6.0 11.0 0.00 0.00 0.00 50 1009.3
20260503230803 55 294 6.0 11.0 0.00 0.00 0.00 50 1009.2
20260503230603 55 293 6.0 11.0 0.00 0.00 0.00 51 1009.4
20260503230403 55 292 6.0 11.0 0.00 0.00 0.00 51 1009.5
20260503230224 55 291 6.0 10.0 0.00 0.00 0.00 50 1009.5
20260503230003 55 291 5.0 10.0 0.00 0.00 0.00 51 1009.6
20260503225824 54 292 5.0 10.0 0.00 0.00 0.00 51 1009.6
20260503225603 54 291 5.0 10.0 0.00 0.00 0.00 51 1009.6
20260503225403 54 292 5.0 10.0 0.00 0.00 0.00 51 1009.7
20260503225203 54 292 5.0 10.0 0.00 0.00 0.00 53 1009.6
20260503225024 54 292 5.0 10.0 0.00 0.00 0.00 54 1009.6
20260503224803 53 292 5.0 10.0 0.00 0.00 0.00 52 1009.7
20260503224603 53 293 5.0 10.0 0.00 0.00 0.00 53 1009.7
20260503224403 53 292 4.0 10.0 0.00 0.00 0.00 53 1009.8
20260503224203 53 292 4.0 10.0 0.00 0.00 0.00 52 1009.8
20260503224003 53 292 4.0 8.0 0.00 0.00 0.00 54 1009.8
20260503223803 53 291 4.0 9.0 0.00 0.00 0.00 54 1009.9
20260503223603 53 292 4.0 9.0 0.00 0.00 0.00 55 1009.9
20260503223403 53 292 4.0 9.0 0.00 0.00 0.00 54 1009.9
20260503223203 53 293 4.0 9.0 0.00 0.00 0.00 54 1009.9
20260503223003 52 294 5.0 9.0 0.00 0.00 0.00 55 1010.0
20260503222803 52 294 5.0 10.0 0.00 0.00 0.00 54 1010.0